SCP
0 0 0 1 1 1 0 1 1 1 1 2 2 2 1 1 1 1 1 0 0 0 0 0 0 0 0 0 0 0 0 0
0 0 0 0 1 1 1 1 1 1 1 2 2 2 2 2 1 1 1 1 0 0 0 0 0 0 0 0 0 0 0 0
0 0 0 0 0 1 1 1 1 0 1 3 3 2 2 2 2 1 1 1 0 1 0 0 0 0 0 0 0 0 0 0
0 0 0 -0 -0 0 1 1 1 1 1 1 1 1 1 1 2 2 1 1 1 1 0 0 0 0 0 0 0 0 0 0
0 0 0 0 -0 -0 -0 0 0 0 0 1 1 1 1 1 2 1 2 2 1 1 1 0 0 0 0 0 0 0 0 0
0 0 0 0 0 -0 -0 0 0 0 0 2 2 1 1 1 1 2 2 2 2 1 1 1 1 0 0 0 0 0 0 0
0 0 0 0 0 0 -0 -0 -0 -0 1 2 3 3 2 1 1 1 2 2 2 2 1 2 1 1 0 0 0 0 0 0
0 0 0 0 0 0 0 0 0 0 0 0 2 2 3 2 2 1 1 1 2 2 2 1 1 1 1 0 0 0 0 0
0 0 0 0 0 0 0 0 0 0 0 0 1 2 2 2 1 1 1 1 1 2 2 2 2 2 1 1 1 1 0 0
0 0 0 0 0 0 0 0 0 0 0 0 0 0 0 1 2 2 2 1 1 1 2 2 2 2 1 1 1 1 1 0
0 0 0 0 0 0 0 0 0 0 0 0 0 0 0 0 0 1 1 1 2 1 2 2 2 3 3 2 2 1 1 1
0 0 0 0 0 0 0 0 0 0 0 0 0 0 0 0 0 0 0 0 0 1 2 2 2 3 3 3 2 2 1 1
0 0 0 0 0 0 0 0 0 0 0 0 0 0 0 0 0 0 0 0 0 0 1 2 2 2 2 2 3 2 2 2
0 0 0 0 0 0 0 0 0 0 0 0 0 0 0 0 0 0 -0 -0 0 0 1 1 2 2 2 2 3 2 2 2
0 0 0 0 0 0 0 0 0 0 0 0 0 0 0 0 0 0 0 -0 -0 -0 0 1 2 2 3 3 2 2 2 2
0 0 0 -0 -0 -0 0 0 0 0 0 0 0 0 0 0 0 0 0 0 0 -0 0 0 1 2 2 2 2 2 1 1
-0 -0 -0 0 0 0 0 0 0 0 0 0 0 0 0 0 0 0 0 0 0 0 0 0 1 1 1 1 1 1 1 0
0 0 0 0 0 0 0 0 0 0 0 0 0 0 0 0 0 0 0 0 0 0 -0 0 0 0 1 1 1 1 1 0
0 0 0 0 0 0 0 0 0 0 0 0 0 0 0 0 0 0 0 0 0 0 0 -0 0 0 0 0 0 0 0 0
0 0 0 0 0 0 0 0 0 0 0 0 0 0 0 0 0 0 0 0 0 0 0 0 -0 0 0 0 0 0 0 0
Wind_Speed_500mb
27 35 23 26 42 44 41 36 35 32 38 43 44 47 49 50 53 55 54 53 50 48 44 45 44 43 43 42 40 37 34 32
12 14 19 25 30 41 49 49 40 36 32 29 32 46 54 52 54 57 60 62 59 57 54 52 51 51 49 49 47 43 41 40
8 14 10 0 10 29 47 51 48 38 40 49 47 48 55 52 50 54 61 67 67 65 65 62 61 59 59 57 56 53 51 49
8 5 27 19 8 16 32 51 56 54 48 49 48 41 45 47 43 43 59 69 72 72 72 73 71 70 66 66 65 62 60 56
19 13 2 23 17 6 27 36 44 48 46 50 55 48 45 45 47 45 47 63 74 72 75 81 78 77 70 70 71 73 72 68
24 18 13 10 3 27 29 32 40 44 47 46 55 50 54 53 48 52 52 53 57 62 78 82 82 82 76 75 74 76 77 74
30 31 23 15 18 8 22 24 19 19 25 41 51 58 56 50 53 61 63 61 58 63 65 70 76 81 84 80 77 74 75 81
33 34 29 29 22 19 16 19 17 16 15 20 28 45 58 60 60 62 63 64 69 72 74 75 75 80 87 88 85 80 79 83
42 38 44 34 23 23 20 13 14 11 11 8 13 25 37 53 58 64 70 71 71 75 83 84 87 84 89 92 92 91 87 87
30 30 28 22 20 17 13 10 9 7 10 13 16 25 29 29 33 43 54 70 77 80 87 91 94 96 97 94 96 98 101 93
48 43 33 26 21 12 5 2 6 11 12 13 20 28 36 45 48 47 47 54 55 76 85 90 97 105 105 104 100 105 110 105
41 38 31 22 20 11 4 8 12 16 23 26 29 37 44 49 53 56 62 69 73 71 72 91 95 100 112 116 116 114 109 102
34 28 24 20 13 7 2 7 16 26 33 39 44 44 47 52 57 67 74 78 81 86 84 78 93 99 108 112 108 118 118 115
28 19 11 5 6 14 19 24 33 37 39 44 46 51 57 63 64 65 70 74 74 71 79 82 76 92 109 115 120 121 124 123
9 3 8 9 20 24 28 34 41 42 48 55 55 53 53 58 61 66 68 69 72 74 73 76 82 81 92 107 113 117 118 119
8 11 18 14 18 27 31 33 40 44 48 52 51 55 63 62 62 62 70 75 73 69 73 75 79 79 81 87 100 106 104 111
22 24 25 22 22 22 32 37 40 44 48 51 56 60 65 64 65 63 68 72 80 80 69 75 76 79 78 79 89 98 101 101
27 11 2 5 15 20 26 29 32 38 45 50 49 49 52 53 57 62 67 69 73 79 84 73 69 63 67 73 79 86 97 103
36 27 16 10 4 7 16 25 32 37 39 41 46 51 56 57 53 52 48 48 57 71 79 78 67 62 59 65 72 77 87 88
18 14 15 20 27 35 43 51 61 70 78 83 83 79 73 71 64 55 50 46 54 61 65 72 70 64 65 62 67 78 78 72
Wind_Direction_500mb
129 158 176 213 214 205 201 198 191 187 210 212 214 218 220 222 222 223 222 221 221 224 223 223 222 223 224 225 225 226 226 222
182 142 145 191 213 225 215 205 196 192 188 207 222 229 223 220 226 227 225 225 228 229 230 230 228 227 228 230 230 229 227 226
204 246 280 213 204 219 232 217 198 203 252 235 234 225 227 228 228 233 234 233 231 234 236 235 234 231 231 232 232 231 229 228
204 205 240 291 297 209 212 226 216 236 238 253 233 225 228 230 233 239 247 244 241 239 240 240 239 235 232 233 233 234 234 231
250 249 188 242 296 200 190 202 227 231 242 255 236 240 236 242 249 251 259 252 248 249 249 250 248 243 238 235 236 236 236 235
227 233 267 290 75 133 154 188 212 227 246 259 241 243 250 252 254 257 259 261 256 257 253 254 253 250 250 246 243 242 241 239
249 249 254 269 245 197 144 157 175 210 235 239 248 250 252 263 258 256 262 259 259 260 260 258 259 253 252 251 249 248 245 242
239 236 238 241 213 195 188 187 187 198 228 256 263 255 252 261 266 270 268 265 269 264 262 259 256 256 251 247 249 248 250 247
238 237 235 229 198 195 195 154 142 130 140 187 245 261 260 263 264 266 268 271 270 270 266 260 258 255 254 250 250 248 248 248
127 145 148 146 157 172 187 192 173 180 233 262 268 274 280 282 277 278 279 270 271 272 272 270 262 258 254 252 247 248 249 246
120 124 119 119 131 127 126 193 264 287 317 299 288 284 282 284 286 286 285 281 281 276 272 270 270 267 259 255 252 245 247 244
111 116 115 114 109 100 22 318 309 309 305 312 315 308 306 303 298 294 290 284 281 278 281 272 269 266 265 259 257 252 245 239
122 114 113 117 129 148 117 345 326 314 309 309 309 305 303 301 299 298 300 300 295 284 275 275 272 265 264 262 256 258 256 248
119 116 128 113 345 321 316 316 317 309 307 309 305 302 302 302 304 304 304 304 303 291 284 279 277 273 266 265 265 261 260 255
105 5 343 295 294 290 297 296 295 294 293 295 294 291 289 294 297 298 303 305 308 305 299 289 285 276 273 268 267 267 261 258
231 268 270 268 268 270 276 284 289 288 291 293 294 290 290 291 294 292 294 298 303 305 302 294 286 282 276 270 268 266 264 263
234 247 242 261 275 270 289 289 287 289 291 291 291 286 286 285 287 284 287 292 298 303 305 297 293 288 277 276 272 270 269 261
246 254 85 245 258 265 265 278 292 289 283 278 271 269 270 277 282 283 285 287 292 295 300 303 290 295 286 278 277 273 267 267
89 89 84 75 48 322 323 318 316 311 305 294 285 280 278 275 274 274 276 285 292 295 300 299 300 285 287 287 281 277 269 266
64 35 0 337 329 321 319 315 311 306 302 299 293 287 283 283 279 276 274 279 278 285 295 300 304 303 291 283 280 273 266 249
Wind_Speed_850mb
27 35 23 26 42 44 41 36 35 32 38 43 44 47 49 50 53 55 54 53 50 48 44 45 44 43 43 42 40 37 34 32
12 14 19 25 30 41 49 49 40 36 32 29 32 46 54 52 54 57 60 62 59 57 54 52 51 51 49 49 47 43 41 40
8 14 10 0 10 29 47 51 48 38 40 49 47 48 55 52 50 54 61 67 67 65 65 62 61 59 59 57 56 53 51 49
8 5 27 19 8 16 32 51 56 54 48 49 48 41 45 47 43 43 59 69 72 72 72 73 71 70 66 66 65 62 60 56
19 13 2 23 17 6 27 36 44 48 46 50 55 48 45 45 47 45 47 63 74 72 75 81 78 77 70 70 71 73 72 68
24 18 13 10 3 27 29 32 40 44 47 46 55 50 54 53 48 52 52 53 57 62 78 82 82 82 76 75 74 76 77 74
30 31 23 15 18 8 22 24 19 19 25 41 51 58 56 50 53 61 63 61 58 63 65 70 76 81 84 80 77 74 75 81
33 34 29 29 22 19 16 19 17 16 15 20 28 45 58 60 60 62 63 64 69 72 74 75 75 80 87 88 85 80 79 83
42 38 44 34 23 23 20 13 14 11 11 8 13 25 37 53 58 64 70 71 71 75 83 84 87 84 89 92 92 91 87 87
30 30 28 22 20 17 13 10 9 7 10 13 16 25 29 29 33 43 54 70 77 80 87 91 94 96 97 94 96 98 101 93
48 43 33 26 21 12 5 2 6 11 12 13 20 28 36 45 48 47 47 54 55 76 85 90 97 105 105 104 100 105 110 105
41 38 31 22 20 11 4 8 12 16 23 26 29 37 44 49 53 56 62 69 73 71 72 91 95 100 112 116 116 114 109 102
34 28 24 20 13 7 2 7 16 26 33 39 44 44 47 52 57 67 74 78 81 86 84 78 93 99 108 112 108 118 118 115
28 19 11 5 6 14 19 24 33 37 39 44 46 51 57 63 64 65 70 74 74 71 79 82 76 92 109 115 120 121 124 123
9 3 8 9 20 24 28 34 41 42 48 55 55 53 53 58 61 66 68 69 72 74 73 76 82 81 92 107 113 117 118 119
8 11 18 14 18 27 31 33 40 44 48 52 51 55 63 62 62 62 70 75 73 69 73 75 79 79 81 87 100 106 104 111
22 24 25 22 22 22 32 37 40 44 48 51 56 60 65 64 65 63 68 72 80 80 69 75 76 79 78 79 89 98 101 101
27 11 2 5 15 20 26 29 32 38 45 50 49 49 52 53 57 62 67 69 73 79 84 73 69 63 67 73 79 86 97 103
36 27 16 10 4 7 16 25 32 37 39 41 46 51 56 57 53 52 48 48 57 71 79 78 67 62 59 65 72 77 87 88
18 14 15 20 27 35 43 51 61 70 78 83 83 79 73 71 64 55 50 46 54 61 65 72 70 64 65 62 67 78 78 72
Wind_Direction_850mb
129 158 176 213 214 205 201 198 191 187 210 212 214 218 220 222 222 223 222 221 221 224 223 223 222 223 224 225 225 226 226 222
182 142 145 191 213 225 215 205 196 192 188 207 222 229 223 220 226 227 225 225 228 229 230 230 228 227 228 230 230 229 227 226
204 246 280 213 204 219 232 217 198 203 252 235 234 225 227 228 228 233 234 233 231 234 236 235 234 231 231 232 232 231 229 228
204 205 240 291 297 209 212 226 216 236 238 253 233 225 228 230 233 239 247 244 241 239 240 240 239 235 232 233 233 234 234 231
250 249 188 242 296 200 190 202 227 231 242 255 236 240 236 242 249 251 259 252 248 249 249 250 248 243 238 235 236 236 236 235
227 233 267 290 75 133 154 188 212 227 246 259 241 243 250 252 254 257 259 261 256 257 253 254 253 250 250 246 243 242 241 239
249 249 254 269 245 197 144 157 175 210 235 239 248 250 252 263 258 256 262 259 259 260 260 258 259 253 252 251 249 248 245 242
239 236 238 241 213 195 188 187 187 198 228 256 263 255 252 261 266 270 268 265 269 264 262 259 256 256 251 247 249 248 250 247
238 237 235 229 198 195 195 154 142 130 140 187 245 261 260 263 264 266 268 271 270 270 266 260 258 255 254 250 250 248 248 248
127 145 148 146 157 172 187 192 173 180 233 262 268 274 280 282 277 278 279 270 271 272 272 270 262 258 254 252 247 248 249 246
120 124 119 119 131 127 126 193 264 287 317 299 288 284 282 284 286 286 285 281 281 276 272 270 270 267 259 255 252 245 247 244
111 116 115 114 109 100 22 318 309 309 305 312 315 308 306 303 298 294 290 284 281 278 281 272 269 266 265 259 257 252 245 239
122 114 113 117 129 148 117 345 326 314 309 309 309 305 303 301 299 298 300 300 295 284 275 275 272 265 264 262 256 258 256 248
119 116 128 113 345 321 316 316 317 309 307 309 305 302 302 302 304 304 304 304 303 291 284 279 277 273 266 265 265 261 260 255
105 5 343 295 294 290 297 296 295 294 293 295 294 291 289 294 297 298 303 305 308 305 299 289 285 276 273 268 267 267 261 258
231 268 270 268 268 270 276 284 289 288 291 293 294 290 290 291 294 292 294 298 303 305 302 294 286 282 276 270 268 266 264 263
234 247 242 261 275 270 289 289 287 289 291 291 291 286 286 285 287 284 287 292 298 303 305 297 293 288 277 276 272 270 269 261
246 254 85 245 258 265 265 278 292 289 283 278 271 269 270 277 282 283 285 287 292 295 300 303 290 295 286 278 277 273 267 267
89 89 84 75 48 322 323 318 316 311 305 294 285 280 278 275 274 274 276 285 292 295 300 299 300 285 287 287 281 277 269 266
64 35 0 337 329 321 319 315 311 306 302 299 293 287 283 283 279 276 274 279 278 285 295 300 304 303 291 283 280 273 266 249